Location: Rounton
(54.4000°N, 1.3500°W)
Time: 04:29:56
(UTC+00:00)

Vanguard 1 - Pass Details

Date: 01 December 2021
Orbit: 652 x 3830 km, 34.2° (Epoch: 17 January)

Event Time Altitude Azimuth Distance (km) Brightness Sun altitude
Exits shadow 00:04:43 15° 107° (ESE) 5,873 13.8 -57.3°
Drops below altitude 10° 00:07:32 10° 101° (E) 6,139 14.0 -57.3°
Sets 00:12:39 0° 90° (E) 6,762 14.4 -57.2°
